C31FR-13 Weather Reports


Display with metric or nautical units.
time (UTC)temp
F
wind
direction
speed
MPH
gust
MPH
rain 1hr
in
rain 24hr
in
rain mn
in
humidity
%
barometer
mb
20260903163102 92 0.0 0.0 0.00 0.00 0.00 25 1023.6
20260903162102 92 0.0 0.0 0.00 0.00 0.00 25 1023.7
20260903160602 92 0.0 0.0 0.00 0.00 0.00 25 1023.6
20260903155602 91 0.0 0.0 0.00 0.00 0.00 25 1023.5
20260903154602 91 0.0 0.0 0.00 0.00 0.00 25 1023.5
20260903145602 89 0.0 0.0 0.00 0.00 0.00 25 1023.7
20260903144603 89 0.0 0.0 0.00 0.00 0.00 26 1023.7
20260903143602 88 0.0 0.0 0.00 0.00 0.00 25 1023.7
20260903142102 88 0.0 0.0 0.00 0.00 0.00 26 1023.8
20260903135602 86 0.0 0.0 0.00 0.00 0.00 26 1024.0
20260903134102 86 0.0 0.0 0.00 0.00 0.00 27 1024.2
20260903125102 84 0.0 0.0 0.00 0.00 0.00 27 1024.5
20260903123102 84 0.0 0.0 0.00 0.00 0.00 29 1024.7
20260903115602 82 0.0 0.0 0.00 0.00 0.00 31 1025.0
20260903114602 82 0.0 0.0 0.00 0.00 0.00 32 1025.1
20260903113603 81 0.0 0.0 0.00 0.00 0.00 33 1025.1
20260903112102 80 0.0 0.0 0.00 0.00 0.00 37 1025.3
20260903104602 78 0.0 0.0 0.00 0.00 0.00 43 1025.7
20260903095602 75 0.0 0.0 0.00 0.00 0.00 49 1026.5
20260903085602 72 0.0 0.0 0.00 0.00 0.00 54 1026.8
20260903085102 72 0.0 0.0 0.00 0.00 0.00 54 1026.8
20260903083102 71 0.0 0.0 0.00 0.00 0.00 57 1026.7
20260903082602 71 0.0 0.0 0.00 0.00 0.00 58 1026.7
20260903082102 70 0.0 0.0 0.00 0.00 0.00 58 1026.8
20260903081602 70 0.0 0.0 0.00 0.00 0.00 59 1026.8
20260903073602 69 0.0 0.0 0.00 0.00 0.00 62 1027.2
20260903073103 68 0.0 0.0 0.00 0.00 0.00 62 1027.3
20260903072102 68 0.0 0.0 0.00 0.00 0.00 63 1027.4
20260903070602 67 0.0 0.0 0.00 0.00 0.00 64 1027.4
20260903055602 67 0.0 0.0 0.00 0.00 0.00 66 1027.4
20260903053602 67 0.0 0.0 0.00 0.00 0.00 64 1027.3
20260903052101 67 0.0 0.0 0.00 0.00 0.00 65 1027.2
20260903045602 67 0.0 0.0 0.00 0.00 0.00 65 1027.0
20260903040602 68 0.0 0.0 0.00 0.00 0.00 64 1026.9
20260903034102 69 0.0 0.0 0.00 0.00 0.00 63 1026.9
20260903033602 68 0.0 0.0 0.00 0.00 0.00 64 1027.0
20260903032602 69 0.0 0.0 0.00 0.00 0.00 63 1027.0
20260903031102 69 0.0 0.0 0.00 0.00 0.00 62 1027.0
20260903025602 69 0.0 0.0 0.00 0.00 0.00 62 1027.0
20260903024602 69 0.0 0.0 0.00 0.00 0.00 62 1026.9
20260903023102 69 0.0 0.0 0.00 0.00 0.00 61 1026.8
20260903022102 69 0.0 0.0 0.00 0.00 0.00 62 1026.9
20260903015601 70 0.0 0.0 0.00 0.00 0.00 61 1026.9
20260903014601 71 0.0 0.0 0.00 0.00 0.00 60 1026.9
20260903013102 71 0.0 0.0 0.00 0.00 0.00 59 1026.9
20260903012102 71 0.0 0.0 0.00 0.00 0.00 59 1026.9
20260903011601 71 0.0 0.0 0.00 0.00 0.00 59 1026.9
20260903005102 71 0.0 0.0 0.00 0.00 0.00 58 1026.8
20260903002102 72 0.0 0.0 0.00 0.00 0.00 58 1026.8
20260902233602 73 0.0 0.0 0.00 0.00 0.00 56 1026.8
20260902232602 73 0.0 0.0 0.00 0.00 0.00 56 1026.6
20260902223102 74 0.0 0.0 0.00 0.00 0.00 55 1026.2
20260902211602 76 0.0 0.0 0.00 0.00 0.00 51 1025.8
20260902201602 78 0.0 0.0 0.00 0.00 0.00 48 1025.1
20260902192602 80 0.0 0.0 0.00 0.00 0.00 47 1024.3
20260902192102 80 0.0 0.0 0.00 0.00 0.00 47 1024.2
20260902184102 81 0.0 0.0 0.00 0.00 0.00 46 1023.6
20260902180602 82 0.0 0.0 0.00 0.00 0.00 44 1023.1
20260902173102 83 0.0 0.0 0.00 0.00 0.00 40 1022.8
20260902171602 85 0.0 0.0 0.00 0.00 0.00 37 1022.6
20260902171102 85 0.0 0.0 0.00 0.00 0.00 35 1022.6